Regional Weather Roundup
Issued by NWS

Home | Current Version | Previous Version | Text Only | Print | Product List | Glossary Off
Versions: 1 2 3 4 5 6 7 8 9 10 11 12 13 14 15 16 17 18 19 20 21 22 23 24 25 26 27 28 29 30 31 32 33 34 35 36 37 38 39 40 41 42 43 44 45 46 47 48 49 50

000
ASUS43 KLMK 241910
RWRKY
KENTUCKY REGIONAL WEATHER ROUNDUP
NATIONAL WEATHER SERVICE LOUISVILLE KY
300 PM EDT THU APR 24 2014

NOTE "FAIR" INDICATES FEW OR NO CLOUDS BELOW 12,000 FEET
WITH NO SIGNIFICANT WEATHER AND/OR OBSTRUCTIONS TO VISIBILITY.

KYZ001>023-026-027-061>063-070>075-242000-
WESTERN AND SOUTH CENTRAL KENTUCKY

CITY           SKY/WX    TMP DP  RH WIND       PRES   REMARKS
PADUCAH        PTSUNNY   80  44  27 SW18G25   29.85F
HENDERSON      MOSUNNY   72  43  35 S8        29.86F
OWENSBORO      MOSUNNY   74  40  29 S9        29.89F
HOPKINSVILLE   PTSUNNY   78  36  21 SW6       29.87F
BOWLING GREEN  MOSUNNY   75  39  27 S13       29.90F
GLASGOW        PTSUNNY   75  38  25 S9G16     29.91F
$$

KYZ024-025-028>034-038-045-046-053-242000-
NORTH CENTRAL KENTUCKY

CITY           SKY/WX    TMP DP  RH WIND       PRES   REMARKS
LOUISVILLE/SDF PTSUNNY   71  37  28 SE8G18    29.92F
LOUISVILLE/LOU SUNNY     73  37  27 SE8       29.92F
FORT KNOX      MOSUNNY   72  38  28 SE7       29.90F
$$

KYZ035>037-039>044-047>052-055>060-089>105-242000-
NORTHEAST KENTUCKY

CITY           SKY/WX    TMP DP  RH WIND       PRES   REMARKS
LEXINGTON      MOSUNNY   69  37  30 E10       29.95F
COVINGTON      PTSUNNY   63  32  31 SE12G18   29.97F
FRANKFORT      MOSUNNY   68  41  37 E9        29.94F
$$

KYZ054-064>069-076>088-106>120-242000-
SOUTHEAST KENTUCKY

CITY           SKY/WX    TMP DP  RH WIND       PRES   REMARKS
JACKSON        SUNNY     69  30  23 SE5       29.97F
LONDON         MOSUNNY   74  32  21 VRB3      29.94F
SOMERSET       MOSUNNY   73  32  21 W3        29.93F
MIDDLESBORO    SUNNY     76  33  21 S8        29.95F
MONTICELLO     CLEAR     78  38  23 VRB3      29.93F
$$




USA.gov is the U.S. government's official web portal to all federal, state and local government web resources and services.